Location: ??????
(56.0120°N, 39.1740°E)
Time: 20:34:51
(UTC+00:00)

Cosmos 1818 - Pass Details

Date: 14 April 2026
Orbit: 774 x 797 km, 65.0° (Epoch: 11 May)

Event Time Altitude Azimuth Distance (km) Brightness Sun altitude
Rises 20:24:48 0° 308° (NW) 3,308 7.6 -23.2°
Reaches altitude 10° 20:27:17 10° 313° (NW) 2,377 6.8 -23.3°
Maximum altitude 20:32:42 60° 33° (NNE) 915 4.0 -23.5°
Enters shadow 20:35:11 32° 101° (E) 1,360 4.5 -23.6°
